Regional Weather Roundup
Issued by NWS

Home | Current Version | Previous Version | Graphics & Text | Print | Product List | Glossary On
Versions: 1 2 3 4 5 6 7 8 9 10 11 12 13 14 15 16 17 18 19 20 21 22 23 24 25 26 27 28 29 30 31 32 33 34 35 36 37 38 39 40 41 42 43 44 45 46 47 48 49 50
000
ASUS43 KFSD 110202
RWRSD

WEATHER ROUNDUP FOR SOUTH DAKOTA
NATIONAL WEATHER SERVICE SIOUX FALLS SD
800 PM CST SUN DEC 10 2017

NOTE: "FAIR" INDICATES FEW OR NO CLOUDS BELOW 12,000 FEET WITH NO
SIGNIFICANT WEATHER AND/OR OBSTRUCTIONS TO VISIBILITY.


SDZ001>005-009-010-012>017-110300-
NORTHWEST AND NORTH CENTRAL SOUTH DAKOTA

CITY           SKY/WX    TMP DP  RH WIND       PRES   REMARKS
BUFFALO          N/A     42  17  36 W17       30.02R
FAITH            N/A     45  21  38 W13       30.04F
MOBRIDGE       CLOUDY    41  27  57 NW6       29.97F
$$

SDZ012>016-024>037-041>051-057-063-072>074-110300-
SOUTHWEST AND SOUTH CENTRAL SOUTH DAKOTA

CITY           SKY/WX    TMP DP  RH WIND       PRES   REMARKS
RAPID CTY ARPT PTCLDY    52   7  16 NW13      30.12F
PIERRE         CLOUDY    46  21  37 W14       30.02S
CUSTER         CLOUDY    43   5  20 NW7       30.21S
ELLSWORTH AFB  CLOUDY    55   7  14 NW15      30.10F
PHILIP         CLOUDY    43  14  31 W8        30.08F
PINE RIDGE     CLEAR     43  16  33 W3        30.18R
SPEARFISH      FAIR      52  10  19 W18G28    30.15F
WINNER         FAIR      46  19  34 W10       30.06F
$$

SDZ004>011-016>023-039-040-110300-
NORTHEAST SOUTH DAKOTA

CITY           SKY/WX    TMP DP  RH WIND       PRES   REMARKS
ABERDEEN       CLOUDY    32  27  81 SW9       29.98F WCI  24
WATERTOWN      PTCLDY    34  29  82 SW10      29.95F WCI  26
BROOKINGS      CLOUDY    33  28  81 SW8       29.99F WCI  26
SISSETON         N/A     33  26  75 SE6       29.94F WCI  28
$$

SDZ017-020-022-023-036>040-048>070-110300-
SOUTHEAST SOUTH DAKOTA

CITY           SKY/WX    TMP DP  RH WIND       PRES   REMARKS
SIOUX FALLS    CLOUDY    35  29  78 SW3       30.02F
HURON          CLOUDY    36  28  73 SW8       30.00F
CHAMBERLAIN    CLEAR     37  24  59 SW5       30.04F
MITCHELL       CLOUDY    39  28  64 W5        30.03F
YANKTON        CLOUDY    39  25  57 CALM      30.06F
$$

ABBREVIATIONS USED IN REMARKS
   TC - TEMPERATURE IN CELSIUS
  WCI - WIND CHILL INDEX
   HX - HEAT INDEX
  VSB - VISIBILITY





USA.gov is the U.S. government's official web portal to all federal, state and local government web resources and services.